Regional Weather Roundup
Issued by NWS

Home | Current Version | Previous Version | Graphics & Text | Print | Product List | Glossary Off
Versions: 1 2 3 4 5 6 7 8 9 10 11 12 13 14 15 16 17 18 19 20 21 22 23 24 25 26 27 28 29 30 31 32 33 34 35 36 37 38 39 40 41 42 43 44 45 46 47 48 49 50

000
ASUS43 KTOP 281259
RWRKS

WEATHER ROUNDUP FOR KANSAS
NATIONAL WEATHER SERVICE GOODLAND KS
800 AM CDT FRI JUL 28 2017

NOTE:  "FAIR" INDICATES FEW OR NO CLOUDS BELOW 12,000 FEET WITH NO
SIGNIFICANT WEATHER AND/OR OBSTRUCTIONS TO VISIBILITY.

KSZ001>006-013>018-027>032-041>047-281400-
NORTHWEST KANSAS

CITY           SKY/WX    TMP DP  RH WIND       PRES   REMARKS
GOODLAND       SUNNY     66  64  93 SE6       30.11R
HAYS           MOSUNNY   68  64  87 E5        30.06S
HILL CITY      CLOUDY    67  65  93 CALM      30.09R
RUSSELL        CLOUDY    68  64  87 NE5       30.04S
$$

KSZ061>065-074>080-084>089-281400-
SOUTHWEST KANSAS

CITY           SKY/WX    TMP DP  RH WIND       PRES   REMARKS
DODGE CITY     CLOUDY    69  66  90 E5        30.08R FOG
ELKHART          N/A     68  57  68 E6          N/A
GARDEN CITY    SUNNY     68  65  90 E6        30.09R
GREAT BEND     MOSUNNY   69  65  86 NE5       30.05F
LIBERAL        CLOUDY    72  68  87 E8        30.09S
$$

KSZ066>073-081>083-090>101-281400-
SOUTHEAST KANSAS

CITY           SKY/WX    TMP DP  RH WIND       PRES   REMARKS
CHANUTE        PTSUNNY   77  72  84 MISG      29.97S
COFFEYVILLE    CLOUDY    77  75  93 N9        29.95R
HUTCHINSON     MOSUNNY   71  66  84 N8        30.01F
MEDICINE LODGE   N/A     74  68  81 N5        30.01R
NEWTON         MOSUNNY   72  66  81 NE7       30.02S
PARSONS        CLOUDY    76  73  91 VRB3      29.97R
WICHITA INTL   PTSUNNY   74  69  85 NE9       30.00R
WICHITA JABRA  PTSUNNY   72  68  87 NE7       30.00R
WICHITA MCCONL MOSUNNY   73  67  80 NE10      30.00R
WINFIELD       CLOUDY    77  72  84 N8        29.99R
$$

KSZ007>012-019>026-033>040-048>060-102>105-281400-
NORTHEAST KANSAS

CITY           SKY/WX    TMP DP  RH WIND       PRES   REMARKS
CONCORDIA      SUNNY     69  65  86 NE5       30.04R
EMPORIA        MOSUNNY   72  67  84 N6        30.01R
LAWRENCE       SUNNY     75  71  87 NE7       29.99R
MANHATTAN      SUNNY     73  65  75 NE5       30.01R
OLATHE IND     SUNNY     74  71  91 NE6       30.00R
OLATHE EXE     SUNNY     73  71  93 NE8       30.00R
SALINA         SUNNY     71  65  81 NW5       30.03R
TOPEKA BILLARD MOSUNNY   73  70  90 N3        30.00R
TOPEKA FORBES  SUNNY     74  70  87 CALM      30.00R
$$



USA.gov is the U.S. government's official web portal to all federal, state and local government web resources and services.